Location: Table Mountain
(47.2500°N, 120.5778°W)
Time: 23:39:07
(UTC-07:00)

OTV 5 (USA 277) - Pass Details

Date: 09 October 2017
Orbit: 404 x 417 km, 43.0° (Epoch: 07 September)

Event Time Altitude Azimuth Distance (km) Brightness Sun altitude
Rises 20:40:16 0° 231° (SW) 2,343 ? -23.5°
Reaches altitude 10° 20:42:36 10° 217° (SW) 1,482 ? -23.9°
Enters shadow 20:42:53 12° 215° (SW) 1,392 ? -24.0°
